{"data":{"norad_id":31797,"intl_designator":"2007-030A","name":"SAR-LUPE 2","alt_names":[],"object_type":"PAYLOAD","status":"ACTIVE","operator":null,"country":"GER","launch_date":"2007-07-02","launch_site_code":"PLMSC","launch_vehicle":null,"mission":null,"orbit_class":"UNKNOWN","rcs_meters":null,"size_class":null,"mass_kg":null,"dimensions":null,"purposes":["military"],"wikipedia_slug":null,"has_3d_model":false,"image_url":null,"decayed_at":null,"tle_current":{"epoch":"2026-05-25T05:01:58.185408Z","epoch_age_seconds":57041,"freshness":"FRESH","line1":"1 31797U 07030A   26145.20970122  .00033474  00000+0  66950-3 0  9997","line2":"2 31797  98.1010 246.8691 0012483 184.9060 175.2067 15.46637862 53385","mean_motion":15.46637862,"eccentricity":0.0012483,"inclination_deg":98.101,"raan_deg":246.8691,"arg_perigee_deg":184.906,"mean_anomaly_deg":175.2067,"bstar":0.0006695,"rev_number":5338,"period_min":93.105182239487,"perigee_km":418.07547082797,"apogee_km":435.06410179067,"semimajor_km":6804.7067863093,"source":"CELESTRAK","updated_at":"2026-05-25T13:38:25.164874Z"}}}